Skip Page Navigation
NASA JPL Caltech
NASA Logo - Jet Propulsion Laboratory + View the NASA Portal
+ Center for Near-Earth Object Studies
JPL Home Earth Solar System Stars & Galaxies Technology
JPL Solar System Dynamics
BODIES ORBITS EPHEMERIDES TOOLS PHYSICAL DATA DISCOVERY FAQ SITE MAP
IMPORTANT: The SSD Announcement email list is now available. Major changes are coming in the near future, including possible hostname and/or URL changes. To be notified of such changes, subscribe to this email list.

Please visit this page for more details.


JPL Small-Body Database Browser
Search: [ help ]  
1619 Ueta (1953 TA)
Classification: Main-belt Asteroid          SPK-ID: 2001619
Ephemeris | Orbit Diagram | Orbital Elements | Mission Design | Physical Parameters | Discovery Circumstances ]

[ show orbit diagram ]
Orbital Elements at Epoch 2459000.5 (2020-May-31.0) TDB
Reference: JPL 27 (heliocentric ecliptic J2000)
 Element Value Uncertainty (1-sigma)   Units 
e .1753711800877733 3.8803e-08  
a 2.241601941515328 5.7012e-09 au
q 1.848489563744741 8.5669e-08 au
i 6.209935499748481 4.0786e-06 deg
node 61.47821671574588 3.1269e-05 deg
peri 328.118677091421 3.3012e-05 deg
M 299.7547332794762 1.3514e-05 deg
tp 2459205.642951049349
(2020-Dec-22.14295105)
4.6508e-05 TDB
period 1225.846716230181
3.36
4.6766e-06
1.28e-08
d
yr
n .2936745640654811 1.1204e-09 deg/d
Q 2.634714319285914 6.701e-09 au
  Orbit Determination Parameters
   # obs. used (total)      2434  
   data-arc span      32344 days (88.55 yr)  
   first obs. used      1931-01-11  
   last obs. used      2019-08-01  
   planetary ephem.      DE431  
   SB-pert. ephem.      SB431-N16  
   condition code      0  
   norm. resid. RMS      .41744  
   source      ORB  
   producer      Otto Matic  
   solution date      2020-Feb-22 16:00:06  

Additional Information
 Earth MOID = .8576 au 
 Jupiter MOID = 2.80321 au 
 T_jup = 3.606 
[ show covariance matrix ]

Ephemeris | Orbit Diagram | Orbital Elements | Mission Design | Physical Parameters | Discovery Circumstances ]

Physical Parameter Table
Parameter Symbol Value Units Sigma Reference Notes
absolute magnitude H 12.2   n/a MPO473786  
diameter diameter 8.965 km 0.124 urn:nasa:pds:neowise_diameters_albedos::2.0[mainbelt] (http://adsabs.harvard.edu/abs/2014ApJ...791..121M)  
rotation period rot_per 2.720 h n/a LCDB (Rev. 2019-August); Warner et al., 2009 Published Reference List:
[Higgins, D. (2011) Minor Planet Bull. 38, 41-46.]
[Stephens, R.D. (2011) Minor Planet Bull. 38, 23-24.]
[Kryszczynska, A.; Colas, F.; Polinska, M.; Hirsch, R.; et al. (2012) Astron. Astrophys. 546, A72.]
[Hanus, J.; Broz, M.; Durech, J.; Warner, B.D.; et al. (2013) Astron. Astrophys. 559, A134.]
[Durech, J.; Hanus, J.; Oszkiewsicz, D.; Vanco, R. (2016) Astron. Astrophys. 587, A48.]
geometric albedo albedo 0.479   0.056 urn:nasa:pds:neowise_diameters_albedos::2.0[mainbelt] (http://adsabs.harvard.edu/abs/2012ApJ...759L...8M)  
B-V BV 0.900   0.035 EAR-A-5-DDR-UBV-MEAN-VALUES-V1.2 #obs=1; phase=18.26 deg.
U-B UB 0.546   0.054 EAR-A-5-DDR-UBV-MEAN-VALUES-V1.2 #obs=1; phase=18.26 deg.
Tholen spectral type spec_T S   n/a EAR-A-5-DDR-TAXONOMY-V4.0 used 7 color indices

1619 Ueta (1953 TA)          Discovered 1953-Oct-11 by Mitani, T. at Kwasan
Reference: DISCOVERY.DBLast Updated: 2003-08-29

Alternate Designations
 1953 TA = 1926 RR = 1931 AO = 1940 YJ = 1951 AG1 = 1978 GM 
Ephemeris | Orbit Diagram | Orbital Elements | Mission Design | Physical Parameters | Discovery Circumstances ]
ABOUT SSD CREDITS/AWARDS PRIVACY/COPYRIGHT GLOSSARY LINKS
FirstGov 2020-Mar-29 06:28 UT
(server date/time)  
NASA Home Page
Site Manager:   Ryan S. Park
Webmaster  Alan B. Chamberlin